| time (UTC) | temp F | wind direction | speed knots | gust knots | rain 1hr in | rain 24hr in | rain mn in | humidity % | barometer mb |
| 20260504214707 | 73 | 152 | 3.5 | 12.2 | 0.00 | 0.00 | 0.00 | 42 | 1006.6 |
| 20260504214204 | 73 | 210 | 1.7 | 2.6 | 0.00 | 0.00 | 0.00 | 43 | 1006.7 |
| 20260504213701 | 71 | 97 | 1.7 | 6.1 | 0.00 | 0.00 | 0.00 | 41 | 1006.6 |
| 20260504213157 | 71 | 67 | 0.9 | 2.6 | 0.00 | 0.00 | 0.00 | 44 | 1006.8 |
| 20260504212654 | 72 | 50 | 0.9 | 9.6 | 0.00 | 0.00 | 0.00 | 44 | 1006.8 |
| 20260504212150 | 73 | 172 | 2.6 | 7.8 | 0.00 | 0.00 | 0.00 | 43 | 1006.7 |
| 20260504211648 | 73 | 85 | 1.7 | 9.6 | 0.00 | 0.00 | 0.00 | 41 | 1006.7 |
| 20260504211144 | 73 | 213 | 3.5 | 5.2 | 0.00 | 0.00 | 0.00 | 41 | 1006.9 |
| 20260504210642 | 74 | 32 | 2.6 | 7.8 | 0.00 | 0.00 | 0.00 | 40 | 1006.8 |
| 20260504210138 | 73 | 205 | 5.2 | 11.3 | 0.00 | 0.00 | 0.00 | 40 | 1006.8 |
| 20260504205636 | 72 | 122 | 2.6 | 5.2 | 0.00 | 0.00 | 0.00 | 42 | 1006.7 |
| 20260504205133 | 73 | 234 | 3.5 | 5.2 | 0.00 | 0.00 | 0.00 | 39 | 1007.0 |
| 20260504204631 | 72 | 95 | 0.9 | 4.3 | 0.00 | 0.00 | 0.00 | 42 | 1007.1 |
| 20260504204130 | 73 | 48 | 0.9 | 2.6 | 0.00 | 0.00 | 0.00 | 44 | 1007.1 |
| 20260504203628 | 74 | 337 | 1.7 | 7.8 | 0.00 | 0.00 | 0.00 | 39 | 1007.1 |
| 20260504203125 | 71 | 339 | 0.9 | 1.7 | 0.00 | 0.00 | 0.00 | 39 | 1007.3 |
| 20260504202620 | 74 | 225 | 1.7 | 5.2 | 0.00 | 0.00 | 0.00 | 38 | 1007.4 |
| 20260504202117 | 74 | 206 | 2.6 | 6.1 | 0.00 | 0.00 | 0.00 | 41 | 1007.4 |
| 20260504201614 | 73 | 246 | 2.6 | 6.1 | 0.00 | 0.00 | 0.00 | 39 | 1007.5 |
| 20260504201112 | 72 | 201 | 3.5 | 5.2 | 0.00 | 0.00 | 0.00 | 39 | 1007.5 |
| 20260504200609 | 73 | 168 | 2.6 | 5.2 | 0.00 | 0.00 | 0.00 | 43 | 1007.5 |
| 20260504200105 | 71 | 193 | 4.3 | 7.8 | 0.00 | 0.00 | 0.00 | 41 | 1007.7 |
| 20260504195601 | 74 | 238 | 4.3 | 7.8 | 0.00 | 0.00 | 0.00 | 39 | 1007.8 |
| 20260504195057 | 73 | 256 | 2.6 | 6.1 | 0.00 | 0.00 | 0.00 | 39 | 1007.9 |
| 20260504194554 | 73 | 207 | 3.5 | 4.3 | 0.00 | 0.00 | 0.00 | 41 | 1007.9 |
| 20260504194050 | 71 | 286 | 2.6 | 5.2 | 0.00 | 0.00 | 0.00 | 40 | 1007.9 |
| 20260504193546 | 72 | 194 | 2.6 | 4.3 | 0.00 | 0.00 | 0.00 | 41 | 1008.1 |
| 20260504193045 | 73 | 307 | 2.6 | 7.0 | 0.00 | 0.00 | 0.00 | 39 | 1008.0 |
| 20260504192543 | 71 | 53 | 2.6 | 4.3 | 0.00 | 0.00 | 0.00 | 40 | 1008.3 |
| 20260504192041 | 70 | 196 | 1.7 | 2.6 | 0.00 | 0.00 | 0.00 | 44 | 1008.3 |
| 20260504191538 | 71 | 240 | 2.6 | 5.2 | 0.00 | 0.00 | 0.00 | 46 | 1008.4 |
| 20260504191034 | 73 | 215 | 4.3 | 7.0 | 0.00 | 0.00 | 0.00 | 39 | 1008.7 |
| 20260504190531 | 72 | 201 | 4.3 | 6.1 | 0.00 | 0.00 | 0.00 | 43 | 1008.5 |
| 20260504190027 | 72 | 211 | 5.2 | 6.1 | 0.00 | 0.00 | 0.00 | 39 | 1008.5 |
| 20260504185524 | 71 | 327 | 1.7 | 1.7 | 0.00 | 0.00 | 0.00 | 46 | 1008.8 |
| 20260504185021 | 71 | 175 | 2.6 | 6.1 | 0.00 | 0.00 | 0.00 | 46 | 1008.7 |
| 20260504184516 | 72 | 172 | 7.0 | 9.6 | 0.00 | 0.00 | 0.00 | 42 | 1008.4 |
| 20260504184012 | 72 | 157 | 2.6 | 8.7 | 0.00 | 0.00 | 0.00 | 42 | 1008.9 |
| 20260504183509 | 73 | 211 | 4.3 | 6.1 | 0.00 | 0.00 | 0.00 | 43 | 1008.8 |
| 20260504183008 | 73 | 79 | 2.6 | 4.3 | 0.00 | 0.00 | 0.00 | 45 | 1009.0 |
| 20260504182504 | 71 | 201 | 4.3 | 5.2 | 0.00 | 0.00 | 0.00 | 43 | 1008.9 |
| 20260504182001 | 71 | 250 | 2.6 | 6.1 | 0.00 | 0.00 | 0.00 | 41 | 1008.9 |
| 20260504181458 | 71 | 207 | 4.3 | 6.1 | 0.00 | 0.00 | 0.00 | 40 | 1009.0 |
| 20260504180956 | 71 | 216 | 6.1 | 11.3 | 0.00 | 0.00 | 0.00 | 41 | 1009.0 |
| 20260504180455 | 71 | 252 | 3.5 | 5.2 | 0.00 | 0.00 | 0.00 | 38 | 1009.3 |
| 20260504175953 | 70 | 197 | 4.3 | 7.0 | 0.00 | 0.00 | 0.00 | 42 | 1009.4 |
| 20260504175450 | 71 | 336 | 1.7 | 5.2 | 0.00 | 0.00 | 0.00 | 40 | 1009.4 |
| 20260504174947 | 70 | 225 | 4.3 | 6.1 | 0.00 | 0.00 | 0.00 | 41 | 1009.2 |
| 20260504174445 | 71 | 263 | 2.6 | 7.8 | 0.00 | 0.00 | 0.00 | 41 | 1009.4 |
| 20260504173942 | 70 | 349 | 2.6 | 8.7 | 0.00 | 0.00 | 0.00 | 41 | 1009.4 |
| 20260504173438 | 69 | 115 | 2.6 | 4.3 | 0.00 | 0.00 | 0.00 | 47 | 1009.4 |
| 20260504172936 | 71 | 3 | 0.9 | 5.2 | 0.00 | 0.00 | 0.00 | 41 | 1009.5 |
| 20260504172432 | 72 | 239 | 1.7 | 4.3 | 0.00 | 0.00 | 0.00 | 44 | 1009.4 |
| 20260504171929 | 69 | 343 | 3.5 | 4.3 | 0.00 | 0.00 | 0.00 | 42 | 1009.4 |
| 20260504171426 | 69 | 168 | 1.7 | 5.2 | 0.00 | 0.00 | 0.00 | 48 | 1009.5 |
| 20260504170923 | 69 | 190 | 4.3 | 5.2 | 0.00 | 0.00 | 0.00 | 50 | 1009.8 |
| 20260504170419 | 68 | 180 | 4.3 | 6.1 | 0.00 | 0.00 | 0.00 | 41 | 1009.5 |
| 20260504160338 | 66 | 222 | 2.6 | 2.6 | 0.00 | 0.00 | 0.00 | 44 | 1010.5 |
| 20260504150802 | 63 | 231 | 2.6 | 5.2 | 0.00 | 0.00 | 0.00 | 47 | 1011.2 |
| 20260504150259 | 62 | 170 | 1.7 | 2.6 | 0.00 | 0.00 | 0.00 | 45 | 1011.4 |
| 20260504141229 | 60 | 259 | 2.6 | 2.6 | 0.00 | 0.00 | 0.00 | 46 | 1011.7 |
| 20260504140725 | 61 | 199 | 2.6 | 4.3 | 0.00 | 0.00 | 0.00 | 47 | 1011.8 |
| 20260504140221 | 60 | 218 | 4.3 | 7.8 | 0.00 | 0.00 | 0.00 | 48 | 1012.0 |
| 20260504130650 | 56 | 28 | 0.9 | 2.6 | 0.00 | 0.00 | 0.00 | 53 | 1012.2 |
| 20260504130146 | 56 | 71 | 1.7 | 5.2 | 0.00 | 0.00 | 0.00 | 55 | 1012.4 |
| 20260504120110 | 51 | 324 | 2.6 | 4.3 | 0.00 | 0.00 | 0.00 | 67 | 1012.5 |
| 20260504110538 | 41 | 56 | 0.9 | 0.9 | 0.00 | 0.00 | 0.00 | 93 | 1012.7 |
| 20260504100454 | 36 | 1 | 0.9 | 1.7 | 0.00 | 0.00 | 0.00 | 98 | 1012.7 |
| 20260504081847 | 35 | 45 | 0.0 | 0.9 | 0.00 | 0.00 | 0.00 | 97 | 1012.8 |
| 20260504081343 | 36 | 52 | 0.9 | 0.9 | 0.00 | 0.00 | 0.00 | 97 | 1012.9 |
| 20260504080839 | 35 | 46 | 0.0 | 0.9 | 0.00 | 0.00 | 0.00 | 97 | 1012.9 |
| 20260504080337 | 36 | 34 | 0.9 | 0.9 | 0.00 | 0.00 | 0.00 | 97 | 1012.9 |
| 20260504070304 | 37 | 14 | 0.0 | 0.9 | 0.00 | 0.00 | 0.00 | 95 | 1012.9 |
| 20260504060224 | 37 | 41 | 0.9 | 0.9 | 0.00 | 0.00 | 0.00 | 96 | 1012.9 |
| 20260504050652 | 39 | 21 | 0.0 | 0.9 | 0.00 | 0.00 | 0.00 | 94 | 1013.0 |
| 20260504050149 | 38 | 345 | 0.9 | 0.9 | 0.00 | 0.00 | 0.00 | 94 | 1012.9 |
| 20260504045646 | 39 | 24 | 0.0 | 0.9 | 0.00 | 0.00 | 0.00 | 94 | 1013.1 |
| 20260504045146 | 39 | 42 | 0.0 | 1.7 | 0.00 | 0.00 | 0.00 | 93 | 1013.0 |
| 20260504044644 | 39 | 39 | 0.0 | 0.9 | 0.00 | 0.00 | 0.00 | 93 | 1012.9 |
| 20260504044141 | 39 | 36 | 0.0 | 0.9 | 0.00 | 0.00 | 0.00 | 93 | 1012.9 |
| 20260504043638 | 39 | 36 | 0.0 | 0.9 | 0.00 | 0.00 | 0.00 | 93 | 1013.0 |
| 20260504043135 | 39 | 40 | 0.0 | 0.9 | 0.00 | 0.00 | 0.00 | 92 | 1012.8 |
| 20260504042632 | 39 | 38 | 0.0 | 0.9 | 0.00 | 0.00 | 0.00 | 92 | 1013.0 |
| 20260504042129 | 39 | 14 | 0.0 | 0.9 | 0.00 | 0.00 | 0.00 | 92 | 1013.1 |
| 20260504041625 | 39 | 32 | 0.9 | 2.6 | 0.00 | 0.00 | 0.00 | 91 | 1012.9 |
| 20260504041121 | 40 | 26 | 0.0 | 0.9 | 0.00 | 0.00 | 0.00 | 91 | 1012.9 |
| 20260504040619 | 39 | 35 | 0.0 | 0.9 | 0.00 | 0.00 | 0.00 | 90 | 1012.9 |
| 20260504040115 | 40 | 64 | 0.0 | 0.9 | 0.00 | 0.00 | 0.00 | 91 | 1012.6 |
| 20260504035612 | 39 | 23 | 0.0 | 0.9 | 0.00 | 0.00 | 0.00 | 91 | 1012.8 |
| 20260504035108 | 39 | 19 | 0.9 | 0.9 | 0.00 | 0.00 | 0.00 | 90 | 1012.7 |
| 20260504034606 | 40 | 46 | 0.9 | 0.9 | 0.00 | 0.00 | 0.00 | 90 | 1012.8 |
| 20260504034103 | 40 | 29 | 0.0 | 0.9 | 0.00 | 0.00 | 0.00 | 90 | 1012.6 |
| 20260504033601 | 40 | 16 | 0.0 | 0.9 | 0.00 | 0.00 | 0.00 | 90 | 1012.8 |
| 20260504033058 | 40 | 35 | 0.0 | 0.9 | 0.00 | 0.00 | 0.00 | 90 | 1012.8 |
| 20260504032555 | 41 | 18 | 0.0 | 0.9 | 0.00 | 0.00 | 0.00 | 90 | 1012.8 |
| 20260504032052 | 41 | 14 | 0.0 | 0.9 | 0.00 | 0.00 | 0.00 | 91 | 1012.7 |
| 20260504031549 | 41 | 3 | 0.9 | 1.7 | 0.00 | 0.00 | 0.00 | 90 | 1012.6 |
| 20260504031045 | 41 | 5 | 0.9 | 0.9 | 0.00 | 0.00 | 0.00 | 90 | 1012.8 |
| 20260504030542 | 41 | 39 | 0.0 | 1.7 | 0.00 | 0.00 | 0.00 | 89 | 1012.8 |
| 20260504030038 | 41 | 33 | 0.0 | 0.9 | 0.00 | 0.00 | 0.00 | 88 | 1012.7 |
| 20260504025536 | 41 | 31 | 0.9 | 0.9 | 0.00 | 0.00 | 0.00 | 87 | 1012.9 |
| 20260504025032 | 42 | 32 | 0.9 | 0.9 | 0.00 | 0.00 | 0.00 | 88 | 1012.8 |
| 20260504024529 | 42 | 348 | 0.9 | 1.7 | 0.00 | 0.00 | 0.00 | 85 | 1012.9 |
| 20260504024026 | 42 | 25 | 0.0 | 0.9 | 0.00 | 0.00 | 0.00 | 84 | 1013.0 |
| 20260504023523 | 43 | 25 | 0.0 | 1.7 | 0.00 | 0.00 | 0.00 | 86 | 1013.0 |
| 20260504023018 | 43 | 22 | 0.0 | 0.9 | 0.00 | 0.00 | 0.00 | 85 | 1012.9 |
| 20260504022514 | 43 | 16 | 0.9 | 0.9 | 0.00 | 0.00 | 0.00 | 84 | 1012.9 |
| 20260504022011 | 43 | 359 | 0.0 | 0.9 | 0.00 | 0.00 | 0.00 | 84 | 1012.9 |
| 20260504021509 | 44 | 25 | 0.0 | 0.9 | 0.00 | 0.00 | 0.00 | 84 | 1012.8 |
| 20260504021006 | 44 | 39 | 0.9 | 0.9 | 0.00 | 0.00 | 0.00 | 84 | 1012.8 |
| 20260504020502 | 44 | 56 | 0.9 | 1.7 | 0.00 | 0.00 | 0.00 | 84 | 1013.0 |
| 20260504015959 | 45 | 40 | 0.0 | 0.0 | 0.00 | 0.00 | 0.00 | 83 | 1012.8 |
| 20260504015455 | 45 | 49 | 0.0 | 0.9 | 0.00 | 0.00 | 0.00 | 83 | 1012.8 |
| 20260504014951 | 45 | 8 | 0.0 | 2.6 | 0.00 | 0.00 | 0.00 | 81 | 1012.6 |
| 20260504014447 | 46 | 19 | 0.0 | 0.9 | 0.00 | 0.00 | 0.00 | 81 | 1012.5 |
| 20260504013944 | 46 | 19 | 0.9 | 1.7 | 0.00 | 0.00 | 0.00 | 80 | 1012.6 |
| 20260504013443 | 46 | 37 | 0.9 | 0.9 | 0.00 | 0.00 | 0.00 | 80 | 1012.5 |
| 20260504012938 | 47 | 14 | 0.0 | 0.9 | 0.00 | 0.00 | 0.00 | 78 | 1012.5 |
| 20260504012437 | 48 | 15 | 0.0 | 0.9 | 0.00 | 0.00 | 0.00 | 77 | 1012.6 |
| 20260504011934 | 48 | 15 | 0.0 | 0.9 | 0.00 | 0.00 | 0.00 | 74 | 1012.4 |
| 20260504011431 | 48 | 32 | 0.0 | 0.9 | 0.00 | 0.00 | 0.00 | 75 | 1012.5 |
| 20260504010926 | 48 | 22 | 0.0 | 0.9 | 0.00 | 0.00 | 0.00 | 75 | 1012.5 |
| 20260504010423 | 48 | 56 | 0.0 | 0.0 | 0.00 | 0.00 | 0.00 | 73 | 1012.4 |
| 20260504005919 | 48 | 17 | 0.0 | 0.9 | 0.00 | 0.00 | 0.00 | 75 | 1012.3 |
| 20260504005415 | 48 | 16 | 0.0 | 0.9 | 0.00 | 0.00 | 0.00 | 73 | 1012.3 |
| 20260504004913 | 49 | 20 | 0.0 | 0.9 | 0.00 | 0.00 | 0.00 | 73 | 1012.4 |
| 20260504004411 | 49 | 19 | 0.0 | 0.0 | 0.00 | 0.00 | 0.00 | 72 | 1012.4 |
| 20260504003908 | 50 | 19 | 0.0 | 0.9 | 0.00 | 0.00 | 0.00 | 71 | 1012.2 |
| 20260504003404 | 51 | 8 | 0.0 | 0.9 | 0.00 | 0.00 | 0.00 | 68 | 1012.0 |
| 20260504002900 | 51 | 10 | 0.9 | 0.9 | 0.00 | 0.00 | 0.00 | 65 | 1012.0 |
| 20260504002358 | 52 | 55 | 0.9 | 0.9 | 0.00 | 0.00 | 0.00 | 63 | 1011.9 |
| 20260504001855 | 53 | 55 | 0.0 | 0.9 | 0.00 | 0.00 | 0.00 | 60 | 1011.9 |
| 20260504001353 | 53 | 78 | 0.9 | 2.6 | 0.00 | 0.00 | 0.00 | 56 | 1011.9 |
| 20260504000849 | 54 | 351 | 0.9 | 1.7 | 0.00 | 0.00 | 0.00 | 53 | 1011.8 |
| 20260504000346 | 54 | 19 | 0.9 | 1.7 | 0.00 | 0.00 | 0.00 | 53 | 1011.9 |
| 20260503235844 | 54 | 22 | 0.0 | 0.9 | 0.00 | 0.00 | 0.00 | 52 | 1012.0 |
| 20260503235341 | 55 | 23 | 0.0 | 0.9 | 0.00 | 0.00 | 0.00 | 52 | 1011.7 |
| 20260503234838 | 56 | 23 | 0.0 | 0.9 | 0.00 | 0.00 | 0.00 | 51 | 1011.8 |
| 20260503234336 | 56 | 355 | 0.0 | 0.9 | 0.00 | 0.00 | 0.00 | 47 | 1011.7 |
| 20260503233834 | 57 | 355 | 0.0 | 0.0 | 0.00 | 0.00 | 0.00 | 47 | 1011.8 |
| 20260503233329 | 58 | 353 | 0.0 | 0.9 | 0.00 | 0.00 | 0.00 | 43 | 1011.7 |
| 20260503232826 | 58 | 355 | 0.9 | 0.9 | 0.00 | 0.00 | 0.00 | 41 | 1011.7 |
| 20260503232323 | 58 | 349 | 0.9 | 4.3 | 0.00 | 0.00 | 0.00 | 43 | 1011.8 |
| 20260503231821 | 58 | 271 | 2.6 | 4.3 | 0.00 | 0.00 | 0.00 | 41 | 1011.7 |
| 20260503231318 | 58 | 321 | 1.7 | 2.6 | 0.00 | 0.00 | 0.00 | 40 | 1011.8 |
| 20260503230814 | 58 | 334 | 2.6 | 4.3 | 0.00 | 0.00 | 0.00 | 41 | 1011.6 |
| 20260503230311 | 58 | 307 | 1.7 | 2.6 | 0.00 | 0.00 | 0.00 | 43 | 1011.7 |
| 20260503225809 | 58 | 333 | 0.9 | 1.7 | 0.00 | 0.00 | 0.00 | 45 | 1011.8 |
| 20260503225305 | 58 | 355 | 0.0 | 1.7 | 0.00 | 0.00 | 0.00 | 49 | 1011.7 |
| 20260503224801 | 57 | 3 | 0.0 | 0.9 | 0.00 | 0.00 | 0.00 | 47 | 1011.6 |
| 20260503224258 | 58 | 12 | 0.0 | 0.9 | 0.00 | 0.00 | 0.00 | 45 | 1011.8 |
| 20260503223756 | 58 | 12 | 0.0 | 0.9 | 0.00 | 0.00 | 0.00 | 44 | 1011.6 |
| 20260503223253 | 58 | 31 | 0.0 | 4.3 | 0.00 | 0.00 | 0.00 | 43 | 1011.6 |
| 20260503222749 | 58 | 14 | 1.7 | 2.6 | 0.00 | 0.00 | 0.00 | 45 | 1011.7 |
| 20260503222247 | 58 | 11 | 0.0 | 2.6 | 0.00 | 0.00 | 0.00 | 44 | 1011.6 |
| 20260503221746 | 58 | 15 | 0.0 | 2.6 | 0.00 | 0.00 | 0.00 | 44 | 1011.7 |
| 20260503221243 | 58 | 57 | 0.9 | 0.9 | 0.00 | 0.00 | 0.00 | 44 | 1011.7 |
| 20260503220739 | 58 | 11 | 0.0 | 1.7 | 0.00 | 0.00 | 0.00 | 44 | 1011.8 |
| 20260503220236 | 58 | 43 | 0.9 | 2.6 | 0.00 | 0.00 | 0.00 | 45 | 1011.8 |
| 20260503215733 | 58 | 340 | 1.7 | 5.2 | 0.00 | 0.00 | 0.00 | 43 | 1011.9 |
| 20260503215230 | 58 | 45 | 0.9 | 1.7 | 0.00 | 0.00 | 0.00 | 44 | 1011.8 |